This demonstration page uses our WeatherBlox Daily Observations layout. Learn more.

Left ArrowRight Arrow

41.55636, -103.73856

Hourly Observations for June 12, 2016

Temp ( °F °C ) Dew Point ( °F °C ) Humidity (%) Winds ( mph kmh ) Pressure ( in mb ) Visibility ( mi km ) Precip ( " mm )
12:53 am 00:53 Mostly Clear 67 19.4 52 11.1 59 59 N 5 7 29.80 1009 10 16 0.00 0.00
1:53 am 01:53 Clear 68 20 51 10.6 55 55 Calm 29.80 1009 10 16 0.00 0.00
2:53 am 02:53 Clear 66 18.9 52 11.1 61 61 Calm 29.80 1009 10 16 0.00 0.00
3:53 am 03:53 Clear 66 18.9 51 10.6 59 59 NE 5 7 29.79 1009 10 16 0.00 0.00
4:53 am 04:53 Clear 67 19.4 52 11.1 59 59 N 8 13 29.78 1009 10 16 0.00 0.00
5:53 am 05:53 Sunny 64 17.8 53 11.7 68 68 W 3 6 29.85 1011 10 16 0.00 0.00
6:53 am 06:53 Sunny 67 19.4 54 12.2 63 63 E 5 7 29.89 1012 10 16 0.00 0.00
7:53 am 07:53 Sunny 69 20.6 57 13.9 66 66 WNW 5 7 29.92 1013 10 16 0.00 0.00
8:53 am 08:53 Sunny 78 25.6 54 12.2 43 43 NNW 8 13 29.93 1013 10 16 0.00 0.00
9:53 am 09:53 Sunny 81 27.2 59 15 47 47 WNW 12 19 29.93 1014 10 16 0.00 0.00
10:53 am 10:53 Sunny 80 26.7 57 13.9 45 45 NW 13 20 29.95 1014 10 16 0.00 0.00
11:53 am 11:53 Sunny 80 26.7 56 13.3 44 44 NW 12 19 29.97 1015 10 16 0.00 0.00
12:53 pm 12:53 Sunny 85 29.4 55 12.8 36 36 N 10 17 29.96 1015 10 16 0.00 0.00
1:53 pm 13:53 Sunny 86 30 53 11.7 32 32 N 7 11 29.94 1014 10 16 0.00 0.00
2:53 pm 14:53 Sunny 88 31.1 56 13.3 34 34 ENE 14 22 29.92 1013 10 16 0.00 0.00
3:53 pm 15:53 Sunny 89 31.7 54 12.2 30 30 ENE 9 15 29.91 1013 10 16 0.00 0.00
4:53 pm 16:53 Sunny 88 31 54 12 31 31 NE 8 13 29.74 1007 10 16 0.00 0.00
5:53 pm 17:53 Sunny 85 29.4 52 11.1 32 32 ENE 10 17 29.92 1013 10 16 0.00 0.00
6:38 pm 18:38 Sunny with Nearby Thunderstorms 82 28 55 13 40 40 ENE 20 31 29.77 1008 10 16 0.00 0.00
6:53 pm 18:53 Partly Cloudy with Nearby Thunderstorms 81 27.2 56 13.3 42 42 E 25 41 29.90 1012 10 16 0.00 0.00
7:01 pm 19:01 Mostly Cloudy with Thunderstorms 81 27.2 56 13.3 42 42 E 12 19 29.77 1008 10 16 0.00 0.00
7:23 pm 19:23 Cloudy with Thunderstorms 62 16.7 59 15 90 90 undefined N/A 29.94 1014 2 3 0.00 0.03
7:30 pm 19:30 Cloudy with Strong Thunderstorms 63 17 61 16 94 94 W 17 28 29.97 1015 1 2 0.00 0.00
7:46 pm 19:46 Cloudy with Strong Thunderstorms 64 18 61 16 88 88 NNW 22 35 29.97 1015 2 3 0.00 0.00
7:49 pm 19:49 Windy with Storms Likely 64 18 63 17 94 94 NW 21 33 29.97 1015 3 5 0.41 10.41
7:53 pm 19:53 Cloudy with Thunderstorms 65 18.3 62 16.7 90 90 WNW 16 26 30.05 1018 7 11 0.41 10.41
8:21 pm 20:21 Cloudy with Strong Thunderstorms 64 17.8 61 16.1 90 90 ESE 23 37 30.00 1016 2 3 0.17 4.32
8:28 pm 20:28 Cloudy with Strong Thunderstorms 63 17 61 16 94 94 E 30 48 29.97 1015 2 3 0.00 0.00
8:31 pm 20:31 Cloudy with Thunderstorms 62 16.7 60 15.6 93 93 E 29 46 30.00 1016 2 3 0.28 7.11
8:40 pm 20:40 Windy with Storms Likely 61 16 57 14 88 88 E 24 39 30.00 1016 7 11 0.00 0.00
8:53 pm 20:53 Cloudy with Thunderstorms 61 16.1 59 15 93 93 NE 16 26 30.04 1017 10 16 0.30 7.62
9:07 pm 21:07 Cloudy with Nearby Thunderstorms 62 16.7 59 15 90 90 ENE 9 15 30.03 1017 10 16 0.00 0.03
9:19 pm 21:19 Cloudy with Light Rain 62 16.7 59 15 90 90 E 13 20 30.03 1017 10 16 0.00 0.03
9:26 pm 21:26 Cloudy with Nearby Thunderstorms 63 17 59 15 88 88 E 14 22 30.03 1017 10 16 0.00 0.00
9:34 pm 21:34 Cloudy with Thunderstorms 63 17 59 15 88 88 E 13 20 30.03 1017 10 16 0.00 0.00
9:53 pm 21:53 Cloudy with Thunderstorms 62 16.7 59 15 90 90 SSE 16 26 30.08 1019 9 14 0.03 0.76
9:55 pm 21:55 Cloudy with Light Rain 62 16.7 59 15 90 90 SSE 14 22 30.06 1018 8 13 0.01 0.25
10:53 pm 22:53 Cloudy with Light Rain 60 15.6 58 14.4 93 93 SE 16 26 30.06 1018 10 16 0.03 0.76
11:53 pm 23:53 Clear 61 16.1 57 13.9 87 87 SE 6 9 30.04 1017 10 16 0.00 0.03

Powered by AerisWeather